This demonstration page uses our WeatherBlox Daily Observations layout. Learn more.

Left ArrowRight Arrow

Hourly Observations for December 16, 2019

Temp ( °F °C ) Dew Point ( °F °C ) Humidity (%) Winds ( mph kmh ) Pressure ( in mb ) Visibility ( mi km ) Precip ( " mm )
12:53 am 00:53 Clear 36 2.2 33 0.6 89 89 NNW 3 6 30.31 1026 10 16 0.00 0.00
1:53 am 01:53 Clear 37 2.8 33 0.6 86 86 N 5 7 30.32 1027 10 16 0.00 0.00
2:53 am 02:53 Clear 34 1.1 31 -0.6 89 89 NNE 3 6 30.33 1027 9 14 0.00 0.00
3:53 am 03:53 Clear 33 0.6 31 -0.6 92 92 Calm 30.33 1027 9 14 0.00 0.00
4:53 am 04:53 Clear 33 0.6 31 -0.6 92 92 N 3 6 30.33 1027 10 16 0.00 0.00
5:53 am 05:53 Clear 32 0 30 -1.1 92 92 Calm 30.34 1028 9 14 0.00 0.00
6:53 am 06:53 Clear 31 -0.6 29 -1.7 92 92 NNE 3 6 30.35 1028 10 16 0.00 0.00
7:53 am 07:53 Sunny 32 0 30 -1.1 92 92 Calm 30.37 1029 10 16 0.00 0.00
8:53 am 08:53 Sunny 36 2.2 33 0.6 89 89 Calm 30.40 1029 10 16 0.00 0.00
9:53 am 09:53 Sunny 43 6 37 3 81 81 Calm 30.41 1030 10 16 0.00 0.00
10:53 am 10:53 Sunny 52 11.1 31 -0.6 45 45 N 9 15 30.38 1029 10 16 0.00 0.00
11:53 am 11:53 Sunny 54 12.2 30 -1.1 40 40 N 10 17 30.35 1028 10 16 0.00 0.00
12:53 pm 12:53 Sunny 56 13.3 28 -2.2 34 34 NNE 8 13 30.32 1027 10 16 0.00 0.00
1:53 pm 13:53 Sunny 58 14.4 28 -2.2 32 32 NE 6 9 30.29 1026 10 16 0.00 0.00
2:53 pm 14:53 Sunny 59 15 28 -2.2 31 31 NE 6 9 30.29 1026 10 16 0.00 0.00
3:53 pm 15:53 Sunny 58 14.4 28 -2.2 32 32 N 7 11 30.29 1026 10 16 0.00 0.00
4:53 pm 16:53 Clear 54 12.2 28 -2.2 37 37 N 6 9 30.28 1025 10 16 0.00 0.00
5:53 pm 17:53 Clear 51 10.6 28 -2.2 41 41 N 5 7 30.28 1026 10 16 0.00 0.00
6:53 pm 18:53 Clear 48 8.9 29 -1.7 48 48 WNW 5 7 30.29 1026 10 16 0.00 0.00
7:53 pm 19:53 Clear 41 5 32 0 70 70 Calm 30.29 1026 10 16 0.00 0.00
8:53 pm 20:53 Clear 37 2.8 32 0 82 82 Calm 30.30 1026 10 16 0.00 0.00
9:53 pm 21:53 Clear 36 2.2 32 0 86 86 WNW 5 7 30.30 1026 10 16 0.00 0.00
10:53 pm 22:53 Clear 36 2.2 31 -0.6 82 82 Calm 30.29 1026 10 16 0.00 0.00
11:53 pm 23:53 Clear 34 1.1 30 -1.1 85 85 Calm 30.29 1026 10 16 0.00 0.00

Powered by AerisWeather